NOAA NWS Hourly Roundups by Site

Regional Weather Roundup for State College, PA

To Select Another Site Choose from List

Select Site:  

000
ASUS41 KCTP 080810
RWRCTP

REGIONAL WEATHER ROUNDUP
NATIONAL WEATHER SERVICE STATE COLLEGE PA
400 AM EDT WED APR 08 2020

Note: "fair" indicates few or no clouds below 12,000 feet with no
significant weather and/or obstructions to visibility.

* = STATION THAT DOES NOT REPORT PRECIPITATION /E.G. RAIN...SNOW...ETC/
    THUNDER OR FOG.

PAZ002>004-007>009-013>016-020>023-029>032-080900-
WESTERN PENNSYLVANIA

CITY           SKY/WX    TMP DP  RH WIND       PRES   REMARKS
ERIE           CLOUDY    55  49  80 SW10      29.57S
MEADVILLE      MOCLDY    51  49  92 SW9       29.56F
FRANKLIN       MOCLDY    52  50  93 SW9       29.58F
NEW CASTLE     CLOUDY    53  52  96 CALM      29.59F
BEAVER COUNTY  LGT RAIN  54  51  90 S3        29.61F
BUTLER         FAIR      52  51  97 S5        29.61F
PITTSBURGH INT LGT RAIN  54  51  90 W8        29.63F
PITTSBURGH     LGT RAIN  55  51  86 W9        29.61F
INDIANA*       CLOUDY    54  52  94 CALM      29.66F
LATROBE        RAIN      55  54  94 SW5       29.64F
WASHINGTON CO* CLOUDY    53  53 100 SW7       29.71R
$$

PAZ004>006-010>012-017>019-024>028-033>037-041-042-045-046-049>053-080900-
CENTRAL PENNSYLVANIA

CITY           SKY/WX    TMP DP  RH WIND       PRES   REMARKS
BRADFORD       CLOUDY    49  46  90 VRB5      29.55R
ST MARYS       CLOUDY    50  48  93 W9G17     29.58S
DUBOIS         MOCLDY    50  48  93 SW13      29.57F
CLEARFIELD     CLOUDY    52  50  93 SW10      29.56F
JOHNSTOWN      LGT RAIN  51  47  86 W10       29.64F
SOMERSET       LGT RAIN  50  46  87 NW5       29.67F
ALTOONA        LGT RAIN  54  51  90 W10       29.62F
STATE COLLEGE  DRIZZLE   53  51  92 W13       29.58F
REEDSVILLE     NOT AVBL
WELLSBORO      FAIR      50  50 100 SW9       29.50R
WILLIAMSPORT   FAIR      53  50  89 NE5       29.49F
SELINSGROVE    MOCLDY    53  52  96 CALM      29.54F FOG
FT INDIANTOWN  HVY RAIN  57  57  99 SW10      29.55F FOG
CAPITAL CITY   LGT RAIN  59  54  83 W9        29.58F
HARRISBURG     HVY RAIN  58  54  86 W14       29.58F FOG
YORK           TSTM      56  52  86 W6        29.60F
$$

PAZ038>040-043-044-047-048-054-055-060>062-067>071-080900-
EASTERN PENNSYLVANIA

CITY           SKY/WX    TMP DP  RH WIND       PRES   REMARKS
TOWANDA        SUNNY     50  50 100 CALM      29.50R
SCRANTON       RAIN      55  51  86 SW7       29.50F FOG
MOUNT POCONO   LGT RAIN  51  48  89 W15       29.52F
HAZLETON       LGT RAIN  52  50  93 CALM      29.56F
LEHIGHTON      RAIN      52  52 100 CALM      29.54F
ALLENTOWN      HVY RAIN  56  51  84 MISG      29.56S
QN CITY/ALNTWN HVY RAIN  54  54 100 SW5       29.57F
QUAKERTOWN*    PTSUNNY   54  54 100 CALM      29.58R FOG
PERKASIE*      HVY RAIN  54  54 100 W3        29.58R
DOYLESTOWN     HVY RAIN  56  53  90 CALM      29.56R FOG
READING        HVY RAIN  56  55  97 S7        29.55R FOG
LANCASTER      HVY RAIN  58  54  86 NW14G20   29.58R FOG
COATESVILLE    RAIN      55  55 100 NW13      29.59R
WEST CHESTER   TSTM      55  54  94 NW3       29.57R
POTTSTOWN      HVY RAIN  54  54 100 NW6       29.59R FOG
BLUE BELL      RAIN      56  55  96 NW7       29.58R FOG
NORTH PHILA    HVY RAIN  57  55  93 W9        29.58R FOG
PHILADELPHIA   TSTM      55  54  94 NW12      29.57R FOG
$$



 

View Past Reports for State College, PA.

Products Courtesy of NOAA-NWS
NWS Information Parsing Script by Ken True at Saratoga Weather - Script by SE Lincoln Weather.